Location: Arcueil
(48.7999°N, 2.3326°E)
Time: 00:33:49
(UTC+00:00)

Cosmos 2219 Rocket - Pass Details

Date: 03 February 2023
Orbit: 826 x 848 km, 71.0° (Epoch: 21 March)

Event Time Altitude Azimuth Distance (km) Brightness Sun altitude
Rises 19:46:57 0° 213° (SSW) 3,354 5.6 -29.1°
Reaches altitude 10° 19:49:23 10° 216° (SW) 2,426 4.9 -29.5°
Enters shadow 19:54:32 68° 269° (W) 895 2.4 -30.3°
